Regional Weather Roundup
Issued by NWS Goodland, KS

Home | Current Version | Previous Version | Text Only | Print | Product List | Glossary Off
Versions: 1 2 3 4 5 6 7 8 9 10 11 12 13 14 15 16 17 18 19 20 21 22 23 24 25 26 27 28 29 30 31 32 33 34 35 36 37 38 39 40 41 42 43 44 45 46 47 48 49 50

000
ASUS43 KGLD 071559
RWRGLD

GOODLAND FORECAST AREA HOURLY WEATHER ROUNDUP
NATIONAL WEATHER SERVICE GOODLAND KS
900 AM MST SUN FEB 07 2016

...OFFICIAL OBSERVATIONS...

CITY           SKY/WX    TMP DP  RH WIND       PRES   REMARKS
GOODLAND KS    SUNNY     30  18  60 NW15      30.27R WCI  19
HILL CITY KS   CLOUDY    37  24  59 NW14      30.22R
IMPERIAL NEB   PTSUNNY   34  24  67 NW18      30.25R
MCCOOK NEB     CLOUDY    37  25  61 NW14      30.22R
AKRON CO       MOSUNNY   25  18  74 N17       30.29R WCI  12
BURLINGTON CO  SUNNY     28  17  63 NW17      30.28R WCI  16
LIMON CO       CLOUDY    24  15  68 N9        30.29R
$$

...UNOFFICIAL OBSERVATIONS...

CITY           SKY/WX    TMP DP  RH WIND       PRES   REMARKS
COLBY KS       PTSUNNY   32  25  74 NW17      30.25R
GOVE KS          N/A     36  32  85 MISG        N/A
LENORA KS        N/A     35  32  89 MISG        N/A
NORTON KS      CLOUDY    36  21  55 W16       30.20
SHARON SPRINGS   N/A     33  23  66 N12         N/A
KIT CARSON CO    N/A     31  19  60 MISG        N/A
YUMA CO          N/A     27  20  75 N12         N/A  WCI  17
$$



USA.gov is the U.S. government's official web portal to all federal, state and local government web resources and services.